Time,TemperatureF,DewpointF,PressureIn,WindDirection,WindDirectionDegrees,WindSpeedMPH,WindSpeedGustMPH,Humidity,HourlyPrecipIn,Conditions,Clouds,dailyrainin,SoftwareType,DateUTC
2013-03-10 00:00:00,30.8,28.8,29.81,North,360,15.0,15.0,92,0.00,,,0.40,Wunderground v.1.15,2013-03-10 06:00:00,
2013-03-10 00:05:00,30.8,28.8,29.82,NNW,347,15.0,45.0,92,0.00,,,0.00,Wunderground v.1.15,2013-03-10 06:05:00,
2013-03-10 00:10:00,30.8,28.8,29.82,NNW,344,14.0,14.0,92,0.00,,,0.00,Wunderground v.1.15,2013-03-10 06:10:00,
2013-03-10 00:20:00,30.7,28.7,29.82,NNE,15,12.0,12.0,92,0.00,,,0.00,Wunderground v.1.15,2013-03-10 06:20:00,
2013-03-10 00:25:00,30.6,28.6,29.82,North,5,13.0,16.0,92,0.00,,,0.00,Wunderground v.1.15,2013-03-10 06:25:00,
2013-03-10 00:30:00,30.4,28.6,29.82,NNW,336,14.0,14.0,93,0.00,,,0.00,Wunderground v.1.15,2013-03-10 06:30:00,
2013-03-10 00:35:00,30.3,28.5,29.82,North,5,13.0,16.0,93,0.00,,,0.00,Wunderground v.1.15,2013-03-10 06:35:00,
2013-03-10 00:44:00,30.2,28.7,29.82,North,355,11.0,45.0,94,0.00,,,0.00,Wunderground v.1.15,2013-03-10 06:44:00,
2013-03-10 00:50:00,30.0,28.5,29.82,NNW,344,11.0,45.0,94,0.00,,,0.00,Wunderground v.1.15,2013-03-10 06:50:00,
2013-03-10 00:55:00,29.9,28.4,29.83,North,9,13.0,45.0,94,0.00,,,0.00,Wunderground v.1.15,2013-03-10 06:55:00,
2013-03-10 01:00:00,29.9,28.4,29.82,NNW,330,13.0,13.0,94,0.00,,,0.00,Wunderground v.1.15,2013-03-10 07:00:00,
2013-03-10 01:10:00,29.7,28.2,29.80,NNW,333,13.0,45.0,94,0.00,,,0.00,Wunderground v.1.15,2013-03-10 07:10:00,
2013-03-10 01:15:00,29.7,28.4,29.80,North,355,14.0,45.0,95,0.00,,,0.00,Wunderground v.1.15,2013-03-10 07:15:00,
2013-03-10 01:20:00,29.7,28.4,29.80,NNE,26,14.0,14.0,95,0.00,,,0.00,Wunderground v.1.15,2013-03-10 07:20:00,
2013-03-10 01:25:00,29.7,28.4,29.80,NNE,32,14.0,19.0,95,0.00,,,0.00,Wunderground v.1.15,2013-03-10 07:25:00,
2013-03-10 01:34:00,29.8,28.5,29.82,North,355,13.0,45.0,95,0.00,,,0.00,Wunderground v.1.15,2013-03-10 07:34:00,
2013-03-10 01:40:00,29.8,28.5,29.82,North,360,14.0,45.0,95,0.00,,,0.00,Wunderground v.1.15,2013-03-10 07:40:00,
2013-03-10 01:45:00,29.8,28.5,29.82,North,350,13.0,45.0,95,0.00,,,0.00,Wunderground v.1.15,2013-03-10 07:45:00,
2013-03-10 01:50:00,29.9,28.6,29.82,NNW,343,13.0,13.0,95,0.00,,,0.00,Wunderground v.1.15,2013-03-10 07:50:00,
2013-03-10 01:55:00,29.8,28.5,29.82,North,360,13.0,45.0,95,0.00,,,0.00,Wunderground v.1.15,2013-03-10 07:55:00,
2013-03-10 03:05:00,29.7,28.4,29.82,North,360,13.0,45.0,95,0.00,,,0.00,Wunderground v.1.15,2013-03-10 08:05:00,
2013-03-10 03:10:00,29.7,28.4,29.82,NNW,337,14.0,14.0,95,0.00,,,0.00,Wunderground v.1.15,2013-03-10 08:10:00,
2013-03-10 03:15:00,29.7,28.4,29.82,NNE,13,13.0,19.0,95,0.00,,,0.00,Wunderground v.1.15,2013-03-10 08:15:00,
2013-03-10 03:20:00,29.7,28.4,29.82,NNE,17,13.0,45.0,95,0.00,,,0.00,Wunderground v.1.15,2013-03-10 08:20:00,
2013-03-10 03:29:00,29.8,28.5,29.82,North,11,13.0,13.0,95,0.00,,,0.00,Wunderground v.1.15,2013-03-10 08:29:00,
2013-03-10 03:35:00,29.8,28.5,29.82,NW,325,14.0,14.0,95,0.00,,,0.00,Wunderground v.1.15,2013-03-10 08:35:00,
2013-03-10 03:40:00,29.9,28.6,29.82,NNW,336,13.0,13.0,95,0.00,,,0.00,Wunderground v.1.15,2013-03-10 08:40:00,
2013-03-10 03:45:00,29.9,28.6,29.81,North,11,13.0,45.0,95,0.00,,,0.00,Wunderground v.1.15,2013-03-10 08:45:00,
2013-03-10 03:55:00,29.9,28.6,29.82,NNE,17,14.0,45.0,95,0.00,,,0.00,Wunderground v.1.15,2013-03-10 08:55:00,
2013-03-10 04:00:00,29.9,28.6,29.83,NNW,347,14.0,14.0,95,0.00,,,0.00,Wunderground v.1.15,2013-03-10 09:00:00,
2013-03-10 04:05:00,29.9,28.6,29.83,North,355,15.0,15.0,95,0.00,,,0.00,Wunderground v.1.15,2013-03-10 09:05:00,
2013-03-10 04:10:00,29.9,28.6,29.83,North,11,14.0,45.0,95,0.00,,,0.00,Wunderground v.1.15,2013-03-10 09:10:00,
2013-03-10 04:15:00,29.9,28.6,29.83,North,355,15.0,45.0,95,0.00,,,0.00,Wunderground v.1.15,2013-03-10 09:15:00,
2013-03-10 04:25:00,30.0,28.7,29.83,NNE,23,15.0,21.0,95,0.00,,,0.00,Wunderground v.1.15,2013-03-10 09:25:00,
2013-03-10 04:30:00,30.0,28.7,29.84,North,360,15.0,15.0,95,0.00,,,0.00,Wunderground v.1.15,2013-03-10 09:30:00,
2013-03-10 04:35:00,30.0,28.7,29.84,NNW,347,13.0,45.0,95,0.00,,,0.00,Wunderground v.1.15,2013-03-10 09:35:00,
2013-03-10 04:44:00,30.1,29.1,29.84,North,355,12.0,21.0,96,0.00,,,0.00,Wunderground v.1.15,2013-03-10 09:44:00,
2013-03-10 04:50:00,30.1,29.1,29.85,North,5,13.0,13.0,96,0.00,,,0.00,Wunderground v.1.15,2013-03-10 09:50:00,
2013-03-10 04:55:00,30.1,29.1,29.85,NNW,335,13.0,45.0,96,0.00,,,0.00,Wunderground v.1.15,2013-03-10 09:55:00,
2013-03-10 05:00:00,30.0,28.7,29.85,North,360,13.0,13.0,95,0.00,,,0.00,Wunderground v.1.15,2013-03-10 10:00:00,
2013-03-10 05:10:00,29.7,28.4,29.86,North,355,14.0,45.0,95,0.00,,,0.00,Wunderground v.1.15,2013-03-10 10:10:00,
2013-03-10 05:15:00,29.5,28.2,29.87,North,355,15.0,45.0,95,0.00,,,0.00,Wunderground v.1.15,2013-03-10 10:15:00,
2013-03-10 05:20:00,29.5,28.2,29.87,North,5,13.0,13.0,95,0.00,,,0.00,Wunderground v.1.15,2013-03-10 10:20:00,
2013-03-10 05:25:00,29.4,28.1,29.88,NNW,341,13.0,16.0,95,0.00,,,0.00,Wunderground v.1.15,2013-03-10 10:25:00,
2013-03-10 05:30:00,29.3,28.0,29.88,North,355,13.0,45.0,95,0.00,,,0.00,Wunderground v.1.15,2013-03-10 10:30:00,
2013-03-10 05:40:00,29.1,27.8,29.90,NW,326,13.0,13.0,95,0.00,,,0.00,Wunderground v.1.15,2013-03-10 10:40:00,
2013-03-10 05:45:00,29.0,27.7,29.90,North,351,12.0,18.0,95,0.00,,,0.00,Wunderground v.1.15,2013-03-10 10:45:00,
2013-03-10 05:50:00,28.3,27.1,29.90,North,11,14.0,14.0,95,0.00,,,0.00,Wunderground v.1.15,2013-03-10 10:50:00,
2013-03-10 05:55:00,28.1,26.9,29.91,NNW,338,15.0,15.0,95,0.00,,,0.00,Wunderground v.1.15,2013-03-10 10:55:00,
2013-03-10 06:05:00,27.8,26.6,29.91,NNW,344,15.0,45.0,95,0.00,,,0.00,Wunderground v.1.15,2013-03-10 11:05:00,
2013-03-10 06:10:00,27.5,26.3,29.91,NNW,329,15.0,45.0,95,0.00,,,0.00,Wunderground v.1.15,2013-03-10 11:10:00,
2013-03-10 06:15:00,26.8,25.6,29.91,NNW,348,16.0,45.0,95,0.00,,,0.00,Wunderground v.1.15,2013-03-10 11:15:00,
2013-03-10 06:20:00,26.4,25.2,29.92,NNW,343,17.0,17.0,95,0.00,,,0.00,Wunderground v.1.15,2013-03-10 11:20:00,
2013-03-10 06:29:00,26.3,25.1,29.92,NW,321,14.0,14.0,95,0.00,,,0.00,Wunderground v.1.15,2013-03-10 11:29:00,
2013-03-10 06:35:00,26.0,24.8,29.92,NNW,332,15.0,17.0,95,0.00,,,0.00,Wunderground v.1.15,2013-03-10 11:35:00,
2013-03-10 06:40:00,25.5,24.0,29.93,NW,321,16.0,45.0,94,0.00,,,0.00,Wunderground v.1.15,2013-03-10 11:40:00,
2013-03-10 06:45:00,25.3,23.8,29.93,WNW,287,17.0,45.0,94,0.00,,,0.00,Wunderground v.1.15,2013-03-10 11:45:00,
2013-03-10 06:55:00,25.3,23.8,29.94,NNW,340,15.0,45.0,94,0.00,,,0.00,Wunderground v.1.15,2013-03-10 11:55:00,
2013-03-10 07:00:00,25.3,23.8,29.94,North,355,14.0,14.0,94,0.00,,,0.00,Wunderground v.1.15,2013-03-10 12:00:00,
2013-03-10 07:05:00,25.2,23.7,29.94,NNW,327,14.0,17.0,94,0.00,,,0.00,Wunderground v.1.15,2013-03-10 12:05:00,
2013-03-10 07:10:00,24.7,23.0,29.94,NW,313,16.0,45.0,93,0.00,,,0.00,Wunderground v.1.15,2013-03-10 12:10:00,
2013-03-10 07:19:00,24.1,22.4,29.94,NNW,332,17.0,45.0,93,0.00,,,0.00,Wunderground v.1.15,2013-03-10 12:19:00,
2013-03-10 07:25:00,24.1,22.4,29.93,NW,320,17.0,45.0,93,0.00,,,0.00,Wunderground v.1.15,2013-03-10 12:25:00,
2013-03-10 07:30:00,24.2,22.5,29.94,NNW,343,19.0,45.0,93,0.00,,,0.00,Wunderground v.1.15,2013-03-10 12:30:00,
2013-03-10 07:35:00,24.2,22.5,29.94,NW,318,18.0,45.0,93,0.00,,,0.00,Wunderground v.1.15,2013-03-10 12:35:00,
2013-03-10 07:44:00,23.5,21.8,29.94,NW,317,19.0,45.0,93,0.00,,,0.00,Wunderground v.1.15,2013-03-10 12:44:00,
2013-03-10 07:50:00,23.0,21.3,29.94,NNW,327,21.0,21.0,93,0.00,,,0.00,Wunderground v.1.15,2013-03-10 12:50:00,
2013-03-10 07:55:00,22.8,21.1,29.94,North,351,21.0,45.0,93,0.00,,,0.00,Wunderground v.1.15,2013-03-10 12:55:00,
2013-03-10 08:00:00,22.7,21.0,29.94,NW,310,21.0,21.0,93,0.00,,,0.00,Wunderground v.1.15,2013-03-10 13:00:00,
2013-03-10 08:05:00,22.7,21.0,29.94,NNW,332,21.0,45.0,93,0.00,,,0.00,Wunderground v.1.15,2013-03-10 13:05:00,
2013-03-10 08:15:00,22.5,20.8,29.95,NW,325,20.0,45.0,93,0.00,,,0.00,Wunderground v.1.15,2013-03-10 13:15:00,
2013-03-10 08:20:00,22.6,20.9,29.95,NNW,329,18.0,45.0,93,0.00,,,0.00,Wunderground v.1.15,2013-03-10 13:20:00,
2013-03-10 08:25:00,22.7,21.0,29.95,NW,313,18.0,45.0,93,0.00,,,0.00,Wunderground v.1.15,2013-03-10 13:25:00,
2013-03-10 08:30:00,22.7,21.0,29.95,NW,313,18.0,45.0,93,0.00,,,0.00,Wunderground v.1.15,2013-03-10 13:30:00,
2013-03-10 08:40:00,21.5,19.8,29.95,NNW,331,23.0,23.0,93,0.00,,,0.00,Wunderground v.1.15,2013-03-10 13:40:00,
2013-03-10 08:45:00,21.1,19.4,29.95,NW,321,24.0,24.0,93,0.00,,,0.00,Wunderground v.1.15,2013-03-10 13:45:00,
2013-03-10 08:50:00,20.8,19.1,29.95,NW,317,24.0,24.0,93,0.00,,,0.00,Wunderground v.1.15,2013-03-10 13:50:00,
2013-03-10 08:55:00,20.7,19.0,29.95,NW,310,23.0,45.0,93,0.00,,,0.00,Wunderground v.1.15,2013-03-10 13:55:00,
2013-03-10 09:05:00,20.6,18.9,29.97,WNW,298,22.0,45.0,93,0.00,,,0.00,Wunderground v.1.15,2013-03-10 14:05:00,
2013-03-10 09:10:00,20.6,18.9,29.97,NNW,338,20.0,20.0,93,0.00,,,0.00,Wunderground v.1.15,2013-03-10 14:10:00,
2013-03-10 09:15:00,20.6,18.9,29.97,NW,310,18.0,25.0,93,0.00,,,0.00,Wunderground v.1.15,2013-03-10 14:15:00,
2013-03-10 09:20:00,20.6,18.9,29.98,NW,310,18.0,45.0,93,0.00,,,0.00,Wunderground v.1.15,2013-03-10 14:20:00,
2013-03-10 09:29:00,20.5,18.8,29.98,NW,314,20.0,20.0,93,0.00,,,0.00,Wunderground v.1.15,2013-03-10 14:29:00,
2013-03-10 09:35:00,20.4,18.4,29.99,NNW,328,20.0,45.0,92,0.00,,,0.00,Wunderground v.1.15,2013-03-10 14:35:00,
2013-03-10 09:40:00,20.3,18.3,29.99,North,350,20.0,45.0,92,0.00,,,0.00,Wunderground v.1.15,2013-03-10 14:40:00,
2013-03-10 09:45:00,20.2,18.2,29.99,NW,306,20.0,45.0,92,0.00,,,0.00,Wunderground v.1.15,2013-03-10 14:45:00,
2013-03-10 09:55:00,20.1,18.1,29.99,NW,322,19.0,45.0,92,0.00,,,0.00,Wunderground v.1.15,2013-03-10 14:55:00,
2013-03-10 10:00:00,19.9,18.0,29.99,NW,311,21.0,45.0,92,0.00,,,0.00,Wunderground v.1.15,2013-03-10 15:00:00,
2013-03-10 10:05:00,19.9,18.0,29.98,NW,324,24.0,45.0,92,0.00,,,0.00,Wunderground v.1.15,2013-03-10 15:05:00,
2013-03-10 10:10:00,19.8,17.9,29.99,NW,320,24.0,45.0,92,0.00,,,0.00,Wunderground v.1.15,2013-03-10 15:10:00,
2013-03-10 10:20:00,19.9,18.2,29.99,NNW,344,23.0,23.0,93,0.00,,,0.00,Wunderground v.1.15,2013-03-10 15:20:00,
2013-03-10 10:25:00,20.0,18.3,30.00,NNW,329,24.0,24.0,93,0.00,,,0.00,Wunderground v.1.15,2013-03-10 15:25:00,
2013-03-10 10:30:00,20.1,18.4,30.00,WNW,297,23.0,23.0,93,0.00,,,0.00,Wunderground v.1.15,2013-03-10 15:30:00,
2013-03-10 10:40:00,20.3,18.6,30.01,NNW,331,21.0,21.0,93,0.00,,,0.00,Wunderground v.1.15,2013-03-10 15:40:00,
2013-03-10 10:45:00,20.3,18.6,30.01,North,5,21.0,45.0,93,0.00,,,0.00,Wunderground v.1.15,2013-03-10 15:45:00,
2013-03-10 10:50:00,20.6,18.9,30.01,NNW,332,18.0,18.0,93,0.00,,,0.00,Wunderground v.1.15,2013-03-10 15:50:00,
2013-03-10 10:55:00,20.8,19.1,30.01,NW,306,17.0,45.0,93,0.00,,,0.00,Wunderground v.1.15,2013-03-10 15:55:00,
2013-03-10 11:00:00,20.9,19.2,30.01,NW,325,18.0,45.0,93,0.00,,,0.00,Wunderground v.1.15,2013-03-10 16:00:00,
2013-03-10 11:10:00,21.0,19.3,30.01,NNW,342,21.0,45.0,93,0.00,,,0.00,Wunderground v.1.15,2013-03-10 16:10:00,
2013-03-10 11:15:00,21.2,19.5,30.02,NNW,327,20.0,45.0,93,0.00,,,0.00,Wunderground v.1.15,2013-03-10 16:15:00,
2013-03-10 11:20:00,21.3,19.6,30.02,NW,317,19.0,19.0,93,0.00,,,0.00,Wunderground v.1.15,2013-03-10 16:20:00,
2013-03-10 11:25:00,21.5,19.8,30.02,NW,313,20.0,20.0,93,0.00,,,0.00,Wunderground v.1.15,2013-03-10 16:25:00,
2013-03-10 11:35:00,21.7,20.0,30.03,NNW,328,20.0,26.0,93,0.00,,,0.00,Wunderground v.1.15,2013-03-10 16:35:00,
2013-03-10 11:40:00,21.4,19.7,30.03,NW,305,22.0,45.0,93,0.00,,,0.00,Wunderground v.1.15,2013-03-10 16:40:00,
2013-03-10 11:50:00,21.4,19.7,30.03,NNW,327,22.0,22.0,93,0.00,,,0.00,Wunderground v.1.15,2013-03-10 16:50:00,
2013-03-10 11:55:00,21.2,19.5,30.03,NW,315,23.0,23.0,93,0.00,,,0.00,Wunderground v.1.15,2013-03-10 16:55:00,
2013-03-10 12:00:00,21.2,19.5,30.04,NW,318,22.0,22.0,93,0.00,,,0.00,Wunderground v.1.15,2013-03-10 17:00:00,
2013-03-10 12:10:00,21.0,19.3,30.04,NW,317,21.0,45.0,93,0.00,,,0.00,Wunderground v.1.15,2013-03-10 17:10:00,
2013-03-10 12:15:00,21.3,19.6,30.05,NW,322,20.0,45.0,93,0.00,,,0.00,Wunderground v.1.15,2013-03-10 17:15:00,
2013-03-10 12:20:00,21.0,19.3,30.04,NW,325,23.0,45.0,93,0.00,,,0.00,Wunderground v.1.15,2013-03-10 17:20:00,
2013-03-10 12:30:00,21.2,19.5,30.05,NW,304,22.0,45.0,93,0.00,,,0.00,Wunderground v.1.15,2013-03-10 17:30:00,
2013-03-10 12:35:00,21.3,19.6,30.05,NNW,340,21.0,45.0,93,0.00,,,0.00,Wunderground v.1.15,2013-03-10 17:35:00,
2013-03-10 12:40:00,21.2,19.5,30.05,NW,319,21.0,45.0,93,0.00,,,0.00,Wunderground v.1.15,2013-03-10 17:40:00,
2013-03-10 12:45:00,21.0,19.3,30.05,NNW,330,22.0,45.0,93,0.00,,,0.00,Wunderground v.1.15,2013-03-10 17:45:00,
2013-03-10 12:50:00,21.0,19.3,30.05,NW,325,21.0,45.0,93,0.00,,,0.00,Wunderground v.1.15,2013-03-10 17:50:00,
2013-03-10 13:00:00,20.8,19.1,30.05,NW,325,20.0,45.0,93,0.00,,,0.00,Wunderground v.1.15,2013-03-10 18:00:00,
2013-03-10 13:05:00,20.9,19.2,30.05,NW,313,21.0,45.0,93,0.00,,,0.00,Wunderground v.1.15,2013-03-10 18:05:00,
2013-03-10 13:10:00,20.7,18.7,30.05,NW,318,23.0,23.0,92,0.00,,,0.00,Wunderground v.1.15,2013-03-10 18:10:00,
2013-03-10 13:15:00,20.8,19.1,30.06,NW,322,22.0,45.0,93,0.00,,,0.00,Wunderground v.1.15,2013-03-10 18:15:00,
2013-03-10 13:20:00,20.8,19.1,30.06,North,5,21.0,21.0,93,0.00,,,0.00,Wunderground v.1.15,2013-03-10 18:20:00,
2013-03-10 13:30:00,20.7,19.0,30.06,NW,313,22.0,22.0,93,0.00,,,0.00,Wunderground v.1.15,2013-03-10 18:30:00,
2013-03-10 13:35:00,20.8,19.1,30.06,NW,317,22.0,45.0,93,0.00,,,0.00,Wunderground v.1.15,2013-03-10 18:35:00,
2013-03-10 13:44:00,20.7,19.0,30.07,NW,317,23.0,45.0,93,0.00,,,0.00,Wunderground v.1.15,2013-03-10 18:44:00,
2013-03-10 13:49:00,20.7,19.0,30.07,NNW,336,22.0,22.0,93,0.00,,,0.00,Wunderground v.1.15,2013-03-10 18:49:00,
2013-03-10 13:55:00,20.7,19.0,30.07,NW,307,21.0,30.0,93,0.00,,,0.00,Wunderground v.1.15,2013-03-10 18:55:00,
2013-03-10 14:00:00,20.7,19.0,30.07,NNW,329,21.0,45.0,93,0.00,,,0.00,Wunderground v.1.15,2013-03-10 19:00:00,
2013-03-10 14:10:00,20.4,18.4,30.07,NNW,327,23.0,45.0,92,0.00,,,0.00,Wunderground v.1.15,2013-03-10 19:10:00,
2013-03-10 14:15:00,20.2,18.2,30.07,NNW,327,24.0,45.0,92,0.00,,,0.00,Wunderground v.1.15,2013-03-10 19:15:00,
2013-03-10 14:20:00,20.4,18.7,30.07,NW,324,21.0,21.0,93,0.00,,,0.00,Wunderground v.1.15,2013-03-10 19:20:00,
2013-03-10 14:25:00,20.5,18.8,30.07,North,360,19.0,24.0,93,0.00,,,0.00,Wunderground v.1.15,2013-03-10 19:25:00,
2013-03-10 14:30:00,20.4,18.4,30.06,NNW,331,21.0,45.0,92,0.00,,,0.00,Wunderground v.1.15,2013-03-10 19:30:00,
2013-03-10 14:40:00,20.1,18.1,30.07,NNW,342,27.0,27.0,92,0.00,,,0.00,Wunderground v.1.15,2013-03-10 19:40:00,
2013-03-10 14:45:00,20.1,18.1,30.07,NW,325,24.0,45.0,92,0.00,,,0.00,Wunderground v.1.15,2013-03-10 19:45:00,
2013-03-10 14:50:00,20.4,18.7,30.06,NW,316,22.0,22.0,93,0.00,,,0.00,Wunderground v.1.15,2013-03-10 19:50:00,
2013-03-10 14:59:00,20.7,19.0,30.07,WNW,297,19.0,19.0,93,0.00,,,0.00,Wunderground v.1.15,2013-03-10 19:59:00,
2013-03-10 15:04:00,20.8,18.8,30.06,NW,320,18.0,22.0,92,0.00,,,0.00,Wunderground v.1.15,2013-03-10 20:04:00,
2013-03-10 15:10:00,20.6,18.6,30.07,NNW,327,21.0,45.0,92,0.00,,,0.00,Wunderground v.1.15,2013-03-10 20:10:00,
2013-03-10 15:15:00,20.7,18.7,30.06,NNW,340,24.0,45.0,92,0.00,,,0.00,Wunderground v.1.15,2013-03-10 20:15:00,
2013-03-10 15:20:00,20.9,19.2,30.07,NW,319,23.0,45.0,93,0.00,,,0.00,Wunderground v.1.15,2013-03-10 20:20:00,
2013-03-10 15:30:00,20.8,18.8,30.07,WNW,302,26.0,45.0,92,0.00,,,0.00,Wunderground v.1.15,2013-03-10 20:30:00,
2013-03-10 15:35:00,21.1,19.4,30.07,NW,307,23.0,45.0,93,0.00,,,0.00,Wunderground v.1.15,2013-03-10 20:35:00,
2013-03-10 15:40:00,21.0,19.0,30.07,NNW,328,24.0,24.0,92,0.00,,,0.00,Wunderground v.1.15,2013-03-10 20:40:00,
2013-03-10 15:45:00,20.9,18.9,30.07,NW,323,25.0,25.0,92,0.00,,,0.00,Wunderground v.1.15,2013-03-10 20:45:00,
2013-03-10 15:55:00,21.1,19.1,30.07,WNW,283,24.0,45.0,92,0.00,,,0.00,Wunderground v.1.15,2013-03-10 20:55:00,
2013-03-10 16:00:00,21.2,19.2,30.07,NW,317,23.0,45.0,92,0.00,,,0.00,Wunderground v.1.15,2013-03-10 21:00:00,
2013-03-10 16:05:00,21.2,19.2,30.07,NW,309,26.0,45.0,92,0.00,,,0.00,Wunderground v.1.15,2013-03-10 21:05:00,
2013-03-10 16:10:00,21.4,19.7,30.07,WNW,303,25.0,45.0,93,0.00,,,0.00,Wunderground v.1.15,2013-03-10 21:10:00,
2013-03-10 16:20:00,21.4,19.4,30.07,NW,311,26.0,45.0,92,0.00,,,0.00,Wunderground v.1.15,2013-03-10 21:20:00,
2013-03-10 16:25:00,21.7,20.0,30.08,NW,323,25.0,45.0,93,0.00,,,0.00,Wunderground v.1.15,2013-03-10 21:25:00,
2013-03-10 16:30:00,21.6,19.9,30.08,NW,313,24.0,24.0,93,0.00,,,0.00,Wunderground v.1.15,2013-03-10 21:30:00,
2013-03-10 16:40:00,21.9,19.9,30.08,NW,318,21.0,45.0,92,0.00,,,0.00,Wunderground v.1.15,2013-03-10 21:40:00,
2013-03-10 16:45:00,22.0,20.0,30.08,NW,317,23.0,45.0,92,0.00,,,0.00,Wunderground v.1.15,2013-03-10 21:45:00,
2013-03-10 16:50:00,21.8,19.8,30.08,NW,312,25.0,45.0,92,0.00,,,0.00,Wunderground v.1.15,2013-03-10 21:50:00,
2013-03-10 16:55:00,21.7,19.7,30.08,NW,315,26.0,45.0,92,0.00,,,0.00,Wunderground v.1.15,2013-03-10 21:55:00,
2013-03-10 17:04:00,21.7,19.7,30.09,NW,321,27.0,45.0,92,0.00,,,0.00,Wunderground v.1.15,2013-03-10 22:04:00,
2013-03-10 17:10:00,21.8,19.8,30.09,NW,309,25.0,45.0,92,0.00,,,0.00,Wunderground v.1.15,2013-03-10 22:10:00,
2013-03-10 17:15:00,21.9,19.9,30.08,NW,314,24.0,45.0,92,0.00,,,0.00,Wunderground v.1.15,2013-03-10 22:15:00,
2013-03-10 17:20:00,22.1,20.1,30.09,NW,304,24.0,45.0,92,0.00,,,0.00,Wunderground v.1.15,2013-03-10 22:20:00,
2013-03-10 17:25:00,22.2,20.2,30.09,NW,312,24.0,45.0,92,0.00,,,0.00,Wunderground v.1.15,2013-03-10 22:25:00,
2013-03-10 17:35:00,22.5,20.5,30.09,NW,315,23.0,45.0,92,0.00,,,0.00,Wunderground v.1.15,2013-03-10 22:35:00,
2013-03-10 17:40:00,22.6,20.6,30.09,NW,319,22.0,22.0,92,0.00,,,0.00,Wunderground v.1.15,2013-03-10 22:40:00,
2013-03-10 17:45:00,22.7,20.7,30.09,NW,319,22.0,45.0,92,0.00,,,0.00,Wunderground v.1.15,2013-03-10 22:45:00,
2013-03-10 17:55:00,22.7,20.7,30.09,NW,323,22.0,45.0,92,0.00,,,0.00,Wunderground v.1.15,2013-03-10 22:55:00,
2013-03-10 18:00:00,22.8,20.8,30.10,NW,309,21.0,45.0,92,0.00,,,0.00,Wunderground v.1.15,2013-03-10 23:00:00,
2013-03-10 18:05:00,22.9,20.9,30.10,WNW,300,19.0,45.0,92,0.00,,,0.00,Wunderground v.1.15,2013-03-10 23:05:00,
2013-03-10 18:10:00,23.1,21.1,30.10,NW,307,19.0,19.0,92,0.00,,,0.00,Wunderground v.1.15,2013-03-10 23:10:00,
2013-03-10 18:19:00,23.3,21.3,30.09,NW,325,17.0,45.0,92,0.00,,,0.00,Wunderground v.1.15,2013-03-10 23:19:00,
2013-03-10 18:25:00,23.0,20.8,30.10,North,355,17.0,45.0,91,0.00,,,0.00,Wunderground v.1.15,2013-03-10 23:25:00,
2013-03-10 18:30:00,23.1,21.1,30.10,NW,324,18.0,45.0,92,0.00,,,0.00,Wunderground v.1.15,2013-03-10 23:30:00,
2013-03-10 18:35:00,23.0,20.8,30.10,NNW,338,18.0,45.0,91,0.00,,,0.00,Wunderground v.1.15,2013-03-10 23:35:00,
2013-03-10 18:40:00,22.8,20.6,30.10,NNW,344,17.0,17.0,91,0.00,,,0.00,Wunderground v.1.15,2013-03-10 23:40:00,
2013-03-10 18:50:00,22.9,20.7,30.11,NW,312,15.0,15.0,91,0.00,,,0.00,Wunderground v.1.15,2013-03-10 23:50:00,
2013-03-10 18:55:00,23.0,20.8,30.11,NNW,332,14.0,19.0,91,0.00,,,0.00,Wunderground v.1.15,2013-03-10 23:55:00,
2013-03-10 19:00:00,23.2,21.0,30.11,NW,316,15.0,15.0,91,0.00,,,0.00,Wunderground v.1.15,2013-03-11 00:00:00,
2013-03-10 19:09:00,23.0,20.5,30.11,NW,318,15.0,45.0,90,0.00,,,0.00,Wunderground v.1.15,2013-03-11 00:09:00,
2013-03-10 19:15:00,22.9,20.4,30.11,NNW,336,15.0,45.0,90,0.00,,,0.00,Wunderground v.1.15,2013-03-11 00:15:00,
2013-03-10 19:20:00,22.8,20.6,30.11,NW,316,14.0,14.0,91,0.00,,,0.00,Wunderground v.1.15,2013-03-11 00:20:00,
2013-03-10 19:25:00,22.9,20.7,30.11,NNW,329,13.0,45.0,91,0.00,,,0.00,Wunderground v.1.15,2013-03-11 00:25:00,
2013-03-10 19:35:00,23.1,20.9,30.11,NNW,329,14.0,45.0,91,0.00,,,0.00,Wunderground v.1.15,2013-03-11 00:35:00,
2013-03-10 19:40:00,23.2,20.7,30.11,NW,306,15.0,45.0,90,0.00,,,0.00,Wunderground v.1.15,2013-03-11 00:40:00,
2013-03-10 19:45:00,23.1,20.6,30.12,NNW,340,15.0,45.0,90,0.00,,,0.00,Wunderground v.1.15,2013-03-11 00:45:00,
2013-03-10 19:50:00,23.2,20.7,30.11,NNW,333,14.0,45.0,90,0.00,,,0.00,Wunderground v.1.15,2013-03-11 00:50:00,
2013-03-10 19:59:00,23.2,20.7,30.12,NW,323,13.0,45.0,90,0.00,,,0.00,Wunderground v.1.15,2013-03-11 00:59:00,
2013-03-10 20:05:00,23.1,20.6,30.12,NNW,340,12.0,45.0,90,0.00,,,0.00,Wunderground v.1.15,2013-03-11 01:05:00,
2013-03-10 20:10:00,23.1,20.6,30.12,NW,313,12.0,45.0,90,0.00,,,0.00,Wunderground v.1.15,2013-03-11 01:10:00,
2013-03-10 20:19:00,22.9,19.9,30.12,NW,317,17.0,45.0,88,0.00,,,0.00,Wunderground v.1.15,2013-03-11 01:19:00,
2013-03-10 20:24:00,22.9,19.9,30.12,NNW,343,16.0,45.0,88,0.00,,,0.00,Wunderground v.1.15,2013-03-11 01:24:00,
2013-03-10 20:30:00,22.8,19.8,30.12,NNW,327,15.0,15.0,88,0.00,,,0.00,Wunderground v.1.15,2013-03-11 01:30:00,
2013-03-10 20:35:00,22.6,19.6,30.13,WNW,302,13.0,45.0,88,0.00,,,0.00,Wunderground v.1.15,2013-03-11 01:35:00,
2013-03-10 20:40:00,22.5,19.2,30.13,NW,325,12.0,45.0,87,0.00,,,0.00,Wunderground v.1.15,2013-03-11 01:40:00,
2013-03-10 20:50:00,22.4,19.1,30.14,NW,309,11.0,45.0,87,0.00,,,0.00,Wunderground v.1.15,2013-03-11 01:50:00,
2013-03-10 20:55:00,22.4,19.1,30.14,North,355,11.0,45.0,87,0.00,,,0.00,Wunderground v.1.15,2013-03-11 01:55:00,
2013-03-10 21:00:00,22.5,19.2,30.14,NNW,343,12.0,12.0,87,0.00,,,0.00,Wunderground v.1.15,2013-03-11 02:00:00,
2013-03-10 21:09:00,22.5,18.9,30.13,NW,325,14.0,45.0,86,0.00,,,0.00,Wunderground v.1.15,2013-03-11 02:09:00,
2013-03-10 21:15:00,22.4,18.8,30.14,NW,319,15.0,45.0,86,0.00,,,0.00,Wunderground v.1.15,2013-03-11 02:15:00,
2013-03-10 21:20:00,22.3,18.5,30.14,NNW,345,13.0,13.0,85,0.00,,,0.00,Wunderground v.1.15,2013-03-11 02:20:00,
2013-03-10 21:30:00,22.1,18.3,30.14,NNW,346,10.0,10.0,85,0.00,,,0.00,Wunderground v.1.15,2013-03-11 02:30:00,
2013-03-10 21:35:00,22.1,18.3,30.14,NNW,346,10.0,45.0,85,0.00,,,0.00,Wunderground v.1.15,2013-03-11 02:35:00,
2013-03-10 21:40:00,22.1,18.3,30.13,NNW,327,11.0,45.0,85,0.00,,,0.00,Wunderground v.1.15,2013-03-11 02:40:00,
2013-03-10 21:45:00,22.2,18.7,30.14,NNW,329,11.0,45.0,86,0.00,,,0.00,Wunderground v.1.15,2013-03-11 02:45:00,
2013-03-10 21:55:00,22.2,18.7,30.13,NNW,340,8.0,45.0,86,0.00,,,0.00,Wunderground v.1.15,2013-03-11 02:55:00,
2013-03-10 22:00:00,22.2,18.4,30.13,NNW,332,9.0,45.0,85,0.00,,,0.00,Wunderground v.1.15,2013-03-11 03:00:00,
2013-03-10 22:05:00,22.1,18.3,30.14,WNW,300,11.0,45.0,85,0.00,,,0.00,Wunderground v.1.15,2013-03-11 03:05:00,
2013-03-10 22:10:00,22.1,18.3,30.14,NNW,347,11.0,11.0,85,0.00,,,0.00,Wunderground v.1.15,2013-03-11 03:10:00,
2013-03-10 22:19:00,22.0,18.2,30.14,NW,317,11.0,45.0,85,0.00,,,0.00,Wunderground v.1.15,2013-03-11 03:19:00,
2013-03-10 22:25:00,21.9,18.1,30.14,NNW,346,12.0,45.0,85,0.00,,,0.00,Wunderground v.1.15,2013-03-11 03:25:00,
2013-03-10 22:30:00,21.8,18.0,30.14,NW,315,12.0,12.0,85,0.00,,,0.00,Wunderground v.1.15,2013-03-11 03:30:00,
2013-03-10 22:35:00,21.6,17.5,30.14,WNW,294,12.0,16.0,84,0.00,,,0.00,Wunderground v.1.15,2013-03-11 03:35:00,
2013-03-10 22:44:00,21.2,17.4,30.14,NNW,337,11.0,13.0,85,0.00,,,0.00,Wunderground v.1.15,2013-03-11 03:44:00,
2013-03-10 22:49:00,21.1,17.3,30.14,NNW,333,10.0,10.0,85,0.00,,,0.00,Wunderground v.1.15,2013-03-11 03:49:00,
2013-03-10 22:55:00,20.9,16.8,30.14,NNW,331,10.0,45.0,84,0.00,,,0.00,Wunderground v.1.15,2013-03-11 03:55:00,
2013-03-10 23:00:00,20.8,16.7,30.14,NW,325,11.0,11.0,84,0.00,,,0.00,Wunderground v.1.15,2013-03-11 04:00:00,
2013-03-10 23:04:00,20.6,16.8,30.14,North,5,10.0,45.0,85,0.00,,,0.00,Wunderground v.1.15,2013-03-11 04:04:00,
2013-03-10 23:09:00,20.3,16.2,30.14,NW,319,11.0,11.0,84,0.00,,,0.00,Wunderground v.1.15,2013-03-11 04:09:00,
2013-03-10 23:15:00,20.2,16.1,30.14,NNW,328,12.0,12.0,84,0.00,,,0.00,Wunderground v.1.15,2013-03-11 04:15:00,
2013-03-10 23:20:00,20.0,15.9,30.13,NW,324,14.0,14.0,84,0.00,,,0.00,Wunderground v.1.15,2013-03-11 04:20:00,
2013-03-10 23:25:00,19.7,15.6,30.14,NNW,340,17.0,17.0,84,0.00,,,0.00,Wunderground v.1.15,2013-03-11 04:25:00,
2013-03-10 23:30:00,19.4,15.4,30.14,NNW,337,16.0,16.0,84,0.00,,,0.00,Wunderground v.1.15,2013-03-11 04:30:00,
2013-03-10 23:39:00,19.2,15.4,30.14,NW,323,12.0,12.0,85,0.00,,,0.00,Wunderground v.1.15,2013-03-11 04:39:00,
2013-03-10 23:45:00,19.2,15.2,30.14,NW,308,12.0,45.0,84,0.00,,,0.00,Wunderground v.1.15,2013-03-11 04:45:00,
2013-03-10 23:50:00,19.1,15.3,30.14,NNW,327,11.0,45.0,85,0.00,,,0.00,Wunderground v.1.15,2013-03-11 04:50:00,
2013-03-10 23:55:00,19.0,15.2,30.13,NW,311,11.0,45.0,85,0.00,,,0.00,Wunderground v.1.15,2013-03-11 04:55:00,